Weather History for OIZI - February, 2013

Change the Weather History Date:

Tuesday, February 5, 2013

  Actual Average Record
Temperature  
Mean Temperature 58 °F -  
Max Temperature 67 °F 76 °F - ()
Min Temperature 48 °F 51 °F - ()
Degree Days  
Heating Degree Days 8    
Growing Degree Days 8 (Base 50)    
Moisture  
Dew Point 20 °F    
Average Humidity 24    
Maximum Humidity 54    
Minimum Humidity 8    
Precipitation  
Precipitation 0.00 in 0.03 in - ()
Sea Level Pressure  
Sea Level Pressure 30.17 in    
Wind  
Wind Speed 5 mph ()    
Max Wind Speed 12 mph    
Max Gust Speed -    
Visibility 6.0 miles    
Events      
T = Trace of Precipitation, MM = Missing Value Source: Averaged Metar Reports

Daily Weather History Graph

Daily Weather History Graph

Search for Another Location

Airport or City:

Trip Planner

Search our weather history database for the weather conditions in past years. The results will help you decide how hot, cold, wet, or windy it might be!

Date:

Astronomy

Feb. 05, 2013 Rise Set
Actual Time 6:10 AM IRST 5:11 PM IRST
Civil Twilight 5:46 AM IRST 5:35 PM IRST
Nautical Twilight 5:18 AM IRST 6:03 PM IRST
Astronomical Twilight 4:51 AM IRST 6:31 PM IRST
Moon 1:17 AM IRST (2/5) 12:14 PM IRST (2/5)
Length of Visible Light 11h 49m
Length of Day
11h 00m
Waning Crescent, 30% of the Moon is Illuminated
Feb 5
Waning Crescent
Feb 10
New
Feb 18
First Quarter
Feb 25
Full
Mar 5
Last Quarter

Hourly Weather History & Observations

Time (IRST) Temp. Dew Point Humidity Pressure Visibility Wind Dir Wind Speed Gust Speed Precip Events Conditions
12:30 AM 50.0 °F 26.6 °F 40% 30.15 in 3.7 mi NW 6.9 mph - N/A   Clear
3:30 AM 48 °F 27 °F 31% 30.17 in 4 mi NNW 4.5 mph - -   Haze
3:30 AM 48.2 °F 26.6 °F 43% 30.15 in 3.7 mi NNW 4.6 mph - N/A   Clear
5:30 AM 50.0 °F 23.0 °F 35% 30.18 in 3.7 mi WNW 4.6 mph - N/A   Clear
6:30 AM 48.2 °F 24.8 °F 40% 30.18 in - West 4.6 mph - N/A   Clear
7:30 AM 48.2 °F 14.0 °F 25% 30.21 in - WSW 4.6 mph - N/A   Clear
8:30 AM 53.6 °F 23.0 °F 30% 30.21 in - West 4.6 mph - N/A   Clear
9:30 AM 57 °F 22 °F 15% 30.22 in 9 mi West 6.7 mph - -  
9:30 AM 57.2 °F 23.0 °F 27% 30.21 in - West 6.9 mph - N/A   Clear
10:30 AM 60.8 °F 19.4 °F 20% 30.21 in - West 9.2 mph - N/A   Clear
11:30 AM 62.6 °F 14.0 °F 15% 30.15 in - WSW 6.9 mph - N/A   Clear
12:30 PM 64.4 °F 14.0 °F 14% 30.15 in - NW 6.9 mph - N/A   Clear
1:30 PM 66.2 °F 15.8 °F 14% 30.12 in - WNW 6.9 mph - N/A   Clear
2:30 PM 66.2 °F 17.6 °F 15% 30.12 in - WNW 9.2 mph - N/A   Clear
3:30 PM 67 °F 19 °F 8% 30.10 in 12 mi West 8.9 mph - -  
3:30 PM 66.2 °F 19.4 °F 17% 30.09 in - West 9.2 mph - N/A   Clear
4:30 PM 66.2 °F 15.8 °F 14% 30.12 in - West 11.5 mph - N/A   Clear
5:30 PM 64.4 °F 15.8 °F 15% 30.15 in - WNW 6.9 mph - N/A   Clear
6:30 PM 60.8 °F 14.0 °F 16% 30.15 in - WNW 6.9 mph - N/A   Clear
7:30 PM 60.8 °F 19.4 °F 20% 30.18 in - South 4.6 mph - N/A   Clear
8:30 PM 57.2 °F 19.4 °F 23% 30.21 in - ESE 4.6 mph - N/A   Clear
9:30 PM 56 °F 17 °F 11% 30.21 in 6 mi NNW 4.5 mph - -  
9:30 PM 57.2 °F 17.6 °F 21% 30.21 in - NNW 4.6 mph - N/A   Clear
10:30 PM 51.8 °F 28.4 °F 41% 30.21 in - Calm Calm - N/A   Clear
11:30 PM 48.2 °F 32.0 °F 54% 30.24 in - Calm Calm - N/A   Clear